sat.trackr.live / text

‹ back to catalog

COSMOS 2550

NORAD 48865 · 2021-056A

PAYLOAD ACTIVE UNKNOWN

§ Identity

Operator
Country
CIS
Launch date
2021-06-25
Launch site
PLMSC
Launch vehicle
Mass (kg)
RCS (m²)

External: N2YO · Heavens-Above · Gunter

§ Orbital elements

Epoch: 2026-05-24T08:28:08.678208Z

Period
93.87 min
Inclination
67.1417°
Eccentricity
0.0008461
Mean motion
15.33968666 rev/d
Perigee alt
458.2 km
Apogee alt
469.8 km
Semi-major
6,842.1 km
B*
1.4446e-4
RAAN
171.9983°
Arg perigee
264.7571°
Mean anomaly
95.2618°
Rev number
27,506

§ Raw data

COSMOS 25501 48865U 21056A   26144.35287822  .00004584  00000+0  14446-3 0  99912 48865  67.1417 171.9983 0008461 264.7571  95.2618 15.33968666275062

JSON: /api/v1/satellites/48865 · /tle

For live sub-satellite position, see the globe view (requires WebGL).

§ Visibility from observer

Set your observer location to see the next 7 days of passes ≥ 10°. The values pass through the URL so the page stays shareable.

No JS? Fill the form by hand. The geolocation button needs JavaScript.